Skagway, AK

5:06 PM AKDT on October 22, 2017 (GMT -0800)
Skagway

Weather History for PAGY - June, 2014

Change the Weather History Date:

Saturday, June 7, 2014

  Actual Average Record
Temperature  
Mean Temperature 52 °F -  
Max Temperature 57 °F 59 °F 77 °F (1966)
Min Temperature 48 °F 45 °F 38 °F (1972)
Degree Days  
Heating Degree Days 12    
Growing Degree Days 2 (Base 50)    
Moisture  
Dew Point 46 °F    
Average Humidity 79    
Maximum Humidity 96    
Minimum Humidity 64    
Precipitation  
Precipitation 0.07 in - - ()
Sea Level Pressure  
Sea Level Pressure 29.94 in    
Wind  
Wind Speed 4 mph (SW)    
Max Wind Speed 20 mph    
Max Gust Speed 24 mph    
Visibility 9 miles    
Events Rain    
Averages and records for this station are not official NWS values.
T = Trace of Precipitation, MM = Missing Value Source: NWS Daily Summary

Daily Weather History Graph

Daily Weather History Graph

Search for Another Location

Airport or City:

Trip Planner

Search our weather history database for the weather conditions in past years. The results will help you decide how hot, cold, wet, or windy it might be!

Date:

Astronomy

Jun. 07, 2014 Rise Set
Actual Time 3:48 AM AKDT 10:12 PM AKDT
Civil Twilight 2:23 AM AKDT 11:38 PM AKDT
Nautical Twilight Sun does not rise Sun does not rise
Astronomical Twilight Sun does not rise Sun does not rise
Moon 3:14 PM AKDT (6/7) 1:45 AM AKDT (6/7)
Length of Visible Light 21h 14m
Length of Day
18h 24m
Waxing Gibbous, 69% of the Moon is Illuminated
Jun 7
Waxing Gibbous
Jun 12
Full
Jun 19
Last Quarter
Jun 27
New
Jul 5
First Quarter

Hourly Weather History & Observations

Time (AKDT) Temp. Dew Point Humidity Pressure Visibility Wind Dir Wind Speed Gust Speed Precip Events Conditions
12:53 AM 48.9 °F 39.9 °F 71% 30.00 in 10.0 mi Calm Calm - N/A   Overcast
1:53 AM 50.0 °F 41.0 °F 71% 30.00 in 10.0 mi Calm Calm - N/A   Overcast
2:53 AM 48.9 °F 39.9 °F 71% 30.01 in 10.0 mi Calm Calm - N/A   Overcast
3:53 AM 48.0 °F 39.9 °F 74% 30.00 in 10.0 mi Calm Calm - N/A   Overcast
4:53 AM 48.0 °F 39.9 °F 74% 30.00 in 10.0 mi Calm Calm - N/A   Scattered Clouds
5:53 AM 50.0 °F 41.0 °F 71% 29.99 in 10.0 mi Calm Calm - N/A   Overcast
7:53 AM 51.1 °F 44.1 °F 77% 30.02 in 10.0 mi Calm Calm - 0.00 in Rain Light Rain
8:53 AM 53.1 °F 45.0 °F 74% 30.01 in 10.0 mi SSW 12.7 mph 17.3 mph 0.00 in   Overcast
9:53 AM 54.0 °F 45.0 °F 72% 30.02 in 10.0 mi SSW 19.6 mph - 0.00 in   Overcast
10:53 AM 54.0 °F 44.1 °F 69% 30.02 in 10.0 mi SSW 12.7 mph 24.2 mph 0.00 in   Overcast
11:53 AM 55.9 °F 44.1 °F 64% 29.99 in 10.0 mi SSW 8.1 mph - N/A   Overcast
12:53 PM 57.0 °F 45.0 °F 64% 29.99 in 10.0 mi Variable 3.5 mph - N/A   Overcast
1:53 PM 55.9 °F 44.1 °F 64% 29.99 in 10.0 mi SSW 15.0 mph - N/A   Overcast
2:53 PM 55.0 °F 46.0 °F 72% 29.99 in 10.0 mi SSW 10.4 mph - 0.00 in   Overcast
3:53 PM 55.0 °F 46.0 °F 72% 29.97 in 10.0 mi SSW 11.5 mph - 0.00 in Rain Light Rain
4:53 PM 53.1 °F 46.9 °F 80% 29.96 in 10.0 mi SW 10.4 mph - 0.00 in Rain Light Rain
5:53 PM 54.0 °F 46.9 °F 77% 29.94 in 10.0 mi WSW 10.4 mph - 0.00 in   Overcast
6:53 PM 53.1 °F 46.9 °F 80% 29.91 in 10.0 mi SW 11.5 mph - N/A   Overcast
7:53 PM 52.0 °F 46.9 °F 83% 29.91 in 6.0 mi WSW 9.2 mph - 0.02 in Rain Light Rain
8:53 PM 52.0 °F 48.9 °F 89% 29.89 in 8.0 mi Calm Calm - 0.01 in Rain Light Rain
9:53 PM 51.1 °F 48.9 °F 92% 29.86 in 6.0 mi Calm Calm - 0.01 in Rain Light Rain
10:08 PM 51.1 °F 48.9 °F 92% 29.87 in 8.0 mi Calm Calm - 0.01 in Rain Light Rain
10:18 PM 51.1 °F 48.9 °F 92% 29.85 in 10.0 mi Calm Calm - 0.01 in Rain Light Rain
10:53 PM 51.1 °F 48.9 °F 92% 29.85 in 7.0 mi Calm Calm - 0.02 in Rain Light Rain
11:01 PM 50.0 °F 48.9 °F 96% 29.86 in 2.5 mi Calm Calm - 0.00 in Rain Light Rain
11:06 PM 51.1 °F 48.9 °F 92% 29.85 in 1.8 mi Calm Calm - 0.01 in Rain Light Rain
11:11 PM 51.1 °F 48.9 °F 92% 29.84 in 3.0 mi Calm Calm - 0.01 in Rain Light Rain
11:27 PM 51.1 °F 48.9 °F 92% 29.85 in 8.0 mi Calm Calm - 0.01 in Rain Light Rain
11:53 PM 51.1 °F 48.9 °F 92% 29.82 in 10.0 mi Calm Calm - 0.01 in   Overcast